Stündliche Wetter Abramkovo

Heute, 17 Juni, Donnerstag

Zeit Temperatur Niederschläge Wind Luftdruck Luftfeuchtigkeit
00:00 +12°C° 0 mm 2 m/S 748 mmHg 74%
01:00 +12°C° 0 mm 2 m/S 748 mmHg 75%
02:00 +12°C° 0 mm 2 m/S 748 mmHg 76%
03:00 +12°C° 0 mm 1 m/S 749 mmHg 76%
04:00 +13°C° 0 mm 1 m/S 749 mmHg 76%
05:00 +13°C° 0 mm 1 m/S 749 mmHg 76%
06:00 +15°C° 0 mm 1 m/S 749 mmHg 70%
07:00 +18°C° 0 mm 1 m/S 750 mmHg 63%
08:00 +20°C° 0 mm 1 m/S 750 mmHg 57%
09:00 +22°C° 0 mm 1 m/S 750 mmHg 52%
10:00 +23°C° 0 mm 1 m/S 750 mmHg 48%
11:00 +22°C° 0 mm 0 m/S 751 mmHg 44%
12:00 +25°C° 0 mm 1 m/S 751 mmHg 43%
13:00 +25°C° 0 mm 1 m/S 751 mmHg 43%
14:00 +25°C° 0 mm 1 m/S 751 mmHg 42%
15:00 +25°C° 0 mm 1 m/S 751 mmHg 44%
16:00 +25°C° 0 mm 1 m/S 751 mmHg 47%
17:00 +24°C° 0 mm 1 m/S 750 mmHg 50%
18:00 +22°C° 0 mm 1 m/S 751 mmHg 57%
19:00 +20°C° 0 mm 1 m/S 751 mmHg 64%
20:00 +18°C° 0 mm 1 m/S 751 mmHg 71%
21:00 +18°C° 0 mm 1 m/S 751 mmHg 71%
22:00 +16°C° 0 mm 1 m/S 751 mmHg 71%
23:00 +15°C° 0 mm 1 m/S 751 mmHg 71%

Morgen, 18 Juni, Freitag

Zeit Temperatur Niederschläge Wind Luftdruck Luftfeuchtigkeit
00:00 +15°C° 0 mm 1 m/S 752 mmHg 72%
01:00 +14°C° 0 mm 1 m/S 752 mmHg 73%
02:00 +14°C° 0 mm 1 m/S 752 mmHg 74%
03:00 +14°C° 0 mm 1 m/S 752 mmHg 75%
04:00 +15°C° 0 mm 1 m/S 752 mmHg 76%
05:00 +15°C° 0 mm 1 m/S 753 mmHg 78%
06:00 +18°C° 0 mm 1 m/S 753 mmHg 72%
07:00 +20°C° 0 mm 1 m/S 753 mmHg 66%
08:00 +22°C° 0 mm 1 m/S 753 mmHg 60%
09:00 +23°C° 0 mm 2 m/S 753 mmHg 57%
10:00 +24°C° 0 mm 2 m/S 753 mmHg 53%
11:00 +26°C° 0 mm 2 m/S 753 mmHg 49%
12:00 +26°C° 0 mm 2 m/S 752 mmHg 49%
13:00 +26°C° 0 mm 3 m/S 752 mmHg 48%
14:00 +27°C° 0 mm 3 m/S 752 mmHg 48%
15:00 +26°C° 0 mm 3 m/S 752 mmHg 52%
16:00 +26°C° 0 mm 3 m/S 751 mmHg 55%
17:00 +26°C° 0 mm 3 m/S 751 mmHg 59%
18:00 +24°C° 0 mm 2 m/S 751 mmHg 65%
19:00 +21°C° 0 mm 2 m/S 751 mmHg 72%
20:00 +19°C° 0 mm 2 m/S 751 mmHg 78%
21:00 +18°C° 0 mm 2 m/S 751 mmHg 81%
22:00 +17°C° 0 mm 2 m/S 752 mmHg 84%
23:00 +16°C° 0 mm 3 m/S 752 mmHg 86%

übermorgen, 19 Juni, Samstag

Zeit Temperatur Niederschläge Wind Luftdruck Luftfeuchtigkeit
00:00 +16°C° 0 mm 2 m/S 752 mmHg 88%
01:00 +15°C° 0 mm 2 m/S 752 mmHg 90%
02:00 +15°C° 0 mm 2 m/S 752 mmHg 92%
03:00 +15°C° 0 mm 2 m/S 752 mmHg 90%
04:00 +16°C° 0 mm 2 m/S 752 mmHg 89%
05:00 +16°C° 0 mm 2 m/S 752 mmHg 88%
06:00 +18°C° 0 mm 2 m/S 752 mmHg 81%
07:00 +20°C° 0 mm 2 m/S 752 mmHg 75%
08:00 +23°C° 0 mm 2 m/S 752 mmHg 68%
09:00 +24°C° 0 mm 2 m/S 752 mmHg 64%
10:00 +25°C° 0 mm 2 m/S 752 mmHg 59%
11:00 +26°C° 0 mm 2 m/S 751 mmHg 55%
12:00 +26°C° 0 mm 2 m/S 751 mmHg 53%
13:00 +27°C° 0 mm 3 m/S 751 mmHg 51%
14:00 +27°C° 0 mm 3 m/S 750 mmHg 50%
15:00 +27°C° 0 mm 2 m/S 750 mmHg 53%
16:00 +27°C° 0 mm 2 m/S 750 mmHg 56%
17:00 +27°C° 0 mm 2 m/S 750 mmHg 59%
18:00 +25°C° 0 mm 2 m/S 750 mmHg 65%
19:00 +23°C° 0 mm 2 m/S 750 mmHg 72%
20:00 +20°C° 0 mm 2 m/S 750 mmHg 78%
21:00 +19°C° 0 mm 2 m/S 750 mmHg 81%
22:00 +18°C° 0 mm 2 m/S 750 mmHg 83%
23:00 +17°C° 0 mm 2 m/S 750 mmHg 86%

20 Juni, Sonntag

Zeit Temperatur Niederschläge Wind Luftdruck Luftfeuchtigkeit
00:00 +16°C° 0 mm 2 m/S 750 mmHg 88%
01:00 +16°C° 0 mm 2 m/S 750 mmHg 90%
02:00 +15°C° 0 mm 2 m/S 750 mmHg 92%
03:00 +16°C° 0 mm 2 m/S 750 mmHg 90%
04:00 +18°C° 0 mm 1 m/S 750 mmHg 88%
05:00 +18°C° 0 mm 1 m/S 750 mmHg 86%
06:00 +20°C° 0 mm 1 m/S 750 mmHg 80%
07:00 +22°C° 0 mm 1 m/S 750 mmHg 73%
08:00 +24°C° 0 mm 2 m/S 750 mmHg 67%
09:00 +25°C° 0 mm 2 m/S 750 mmHg 62%
10:00 +26°C° 0 mm 2 m/S 750 mmHg 58%
11:00 +27°C° 0 mm 2 m/S 749 mmHg 53%
12:00 +28°C° 0 mm 2 m/S 749 mmHg 52%
13:00 +28°C° 0 mm 2 m/S 749 mmHg 50%
14:00 +29°C° 0 mm 2 m/S 749 mmHg 49%
15:00 +28°C° 0 mm 2 m/S 749 mmHg 53%
16:00 +28°C° 0 mm 2 m/S 748 mmHg 56%
17:00 +28°C° 0 mm 2 m/S 748 mmHg 60%
18:00 +26°C° 0 mm 2 m/S 748 mmHg 66%
19:00 +24°C° 0 mm 2 m/S 748 mmHg 73%
20:00 +23°C° 0 mm 2 m/S 748 mmHg 79%
21:00 +21°C° 0 mm 2 m/S 748 mmHg 81%
22:00 +20°C° 0 mm 2 m/S 748 mmHg 83%
23:00 +19°C° 0 mm 2 m/S 748 mmHg 85%

21 Juni, Montag

Zeit Temperatur Niederschläge Wind Luftdruck Luftfeuchtigkeit
00:00 +18°C° 0 mm 2 m/S 748 mmHg 86%
01:00 +18°C° 0 mm 2 m/S 748 mmHg 87%
02:00 +18°C° 0 mm 2 m/S 748 mmHg 88%
03:00 +19°C° 0 mm 1 m/S 748 mmHg 87%
04:00 +20°C° 0 mm 1 m/S 748 mmHg 87%
05:00 +20°C° 0 mm 1 m/S 748 mmHg 86%
06:00 +22°C° 0 mm 1 m/S 748 mmHg 80%
07:00 +23°C° 0 mm 1 m/S 748 mmHg 74%
08:00 +25°C° 0 mm 1 m/S 748 mmHg 68%
09:00 +26°C° 0 mm 1 m/S 748 mmHg 64%
10:00 +27°C° 0 mm 2 m/S 748 mmHg 59%
11:00 +28°C° 0 mm 2 m/S 748 mmHg 55%
12:00 +29°C° 0 mm 2 m/S 747 mmHg 53%
13:00 +29°C° 0 mm 2 m/S 747 mmHg 51%
14:00 +30°C° 0 mm 2 m/S 747 mmHg 49%
15:00 +29°C° 0 mm 2 m/S 747 mmHg 53%
16:00 +29°C° 0 mm 2 m/S 747 mmHg 56%
17:00 +29°C° 0 mm 2 m/S 747 mmHg 60%
18:00 +27°C° 0 mm 2 m/S 746 mmHg 67%
19:00 +25°C° 0 mm 2 m/S 746 mmHg 74%
20:00 +23°C° 0 mm 2 m/S 746 mmHg 82%
21:00 +21°C° 0 mm 2 m/S 746 mmHg 84%
22:00 +20°C° 0 mm 2 m/S 747 mmHg 87%
23:00 +19°C° 0 mm 2 m/S 747 mmHg 89%

22 Juni, Dienstag

Zeit Temperatur Niederschläge Wind Luftdruck Luftfeuchtigkeit
00:00 +19°C° 0 mm 2 m/S 747 mmHg 90%
01:00 +18°C° 0 mm 2 m/S 747 mmHg 92%
02:00 +18°C° 0 mm 2 m/S 747 mmHg 93%
03:00 +19°C° 0 mm 2 m/S 747 mmHg 92%
04:00 +19°C° 0 mm 2 m/S 747 mmHg 91%
05:00 +20°C° 0 mm 2 m/S 747 mmHg 90%
06:00 +23°C° 0 mm 2 m/S 747 mmHg 83%
07:00 +25°C° 0 mm 2 m/S 747 mmHg 76%
08:00 +27°C° 0 mm 3 m/S 747 mmHg 69%
09:00 +28°C° 0 mm 3 m/S 747 mmHg 63%
10:00 +29°C° 0 mm 3 m/S 747 mmHg 58%
11:00 +30°C° 0 mm 4 m/S 747 mmHg 53%
12:00 +32°C° 0 mm 4 m/S 747 mmHg 51%
13:00 +32°C° 0 mm 4 m/S 747 mmHg 49%
14:00 +33°C° 0 mm 4 m/S 747 mmHg 48%
15:00 +31°C° 0 mm 3 m/S 747 mmHg 51%
16:00 +31°C° 0 mm 3 m/S 746 mmHg 54%
17:00 +31°C° 0 mm 2 m/S 746 mmHg 57%
18:00 +29°C° 0 mm 2 m/S 746 mmHg 65%
19:00 +27°C° 0 mm 2 m/S 746 mmHg 72%
20:00 +25°C° 0 mm 2 m/S 746 mmHg 79%
21:00 +24°C° 0 mm 2 m/S 747 mmHg 83%
22:00 +23°C° 0 mm 2 m/S 747 mmHg 86%
23:00 +21°C° 0 mm 2 m/S 747 mmHg 89%
Mehr zeigen

Wir brauchen deine Erlaubnis

Meteoprog und unser Service Anbieter werden persönliche Daten aufbewahren, so wie Cookies, Geräte Bezeichnung oder ähnliche Technologien von deinem Gerät und Prozess, so wie Persönliche Daten Inhalte und Werbungen, genauso wie social Media und den Verkehr zu analysieren.

  • Aufbewahrung und/oder Zugang zu deiner Geräte Informationen.

    Cookies, Geräte Bezeichnung oder andere Informationen, können aufbewahrt oder Zugang zu deinem Gerät erhalten, für den Grund, der oben angegeben wird.

  • Personalisierte Werbung und Inhalte, Messungen, Einblick in das Publikum und Produkt Entwicklung.

    Werbungen und Inhalte können personalisiert werden, basierend auf ein Profil. Mehr Daten können besser personalisierte Werbungen und Inhalte hinzufügen. Werbung und Inhalte können gezeigt und gemessen werden. Einblicke über das Publikum, welche die Werbung gesehen haben und den Inhalt, können abgeleitet werden. So wie Daten können genutzt werden, um es zu verbessern oder die Benutzer Erfahrung zu verbessern das System und die Software.

Wenn du “Ich stimme zu” klickst, erlaubst du uns, die Cookies zu benutzen die Geräte Bezeichnung, den Web oder ähnliche Technologien zu benutzen. Deine Settings, können in deinem Gerät bei deinem Browser geändert werden.

Für den bestimmten Zweck, berechtigten Interessen beruhen darauf, mehr als auf den Inhalt. Du kannst mehr darüber in unseren Privaten und Cookie Politik lesen.